Weather History for K82V - January, 2014

Change the Weather History Date:

Wednesday, January 8, 2014

  Actual Average (KCYS) Record (KCYS)
Temperature  
Mean Temperature 27 °F 29 °F  
Max Temperature 35 °F 40 °F 64 °F (2003)
Min Temperature 17 °F 18 °F -37 °F (1875)
Degree Days  
Heating Degree Days 38 36  
Month to date heating degree days 289  
Since 1 July heating degree days 3192  
Cooling Degree Days 0 0  
Month to date cooling degree days 0  
Year to date cooling degree days 0  
Moisture  
Dew Point 24 °F    
Average Humidity 83    
Maximum Humidity 100    
Minimum Humidity 69    
Precipitation  
Precipitation 0.00 in 0.01 in 0.54 in (1891)
Month to date precipitation 0.09  
Year to date precipitation 0.09  
Snow  
Snow 0.00 in 0.20 in 7.80 in (1962)
Month to date snowfall 1.6  
Since 1 July snowfall 24.3  
Snow Depth -    
Sea Level Pressure  
Sea Level Pressure 30.00 in    
Wind  
Wind Speed 6 mph (SSW)    
Max Wind Speed 16 mph    
Max Gust Speed 21 mph    
Visibility 10 miles    
Events      
T = Trace of Precipitation, MM = Missing Value Source: NWS Daily Summary

Daily Weather History Graph

Daily Weather History Graph

Search for Another Location

Airport or City:

Trip Planner

Search our weather history database for the weather conditions in past years. The results will help you decide how hot, cold, wet, or windy it might be!

Date:

Astronomy

Jan. 08, 2014 Rise Set
Actual Time 7:21 AM MST 4:45 PM MST
Civil Twilight 6:50 AM MST 5:15 PM MST
Nautical Twilight 6:16 AM MST 5:50 PM MST
Astronomical Twilight 5:43 AM MST 6:23 PM MST
Moon 11:40 AM MST (1/8) 12:27 AM MST (1/8)
Length of Visible Light 10h 24m
Length of Day
9h 23m
First Quarter, 56% of the Moon is Illuminated
Jan 8
First Quarter
Jan 15
Full
Jan 23
Last Quarter
Jan 30
New
Feb 6
First Quarter

Hourly Weather History & Observations

Time (MST) Temp. Windchill Dew Point Humidity Pressure Visibility Wind Dir Wind Speed Gust Speed Precip Events Conditions
12:15 AM 30.2 °F - 28.4 °F 93% 29.98 in 10.0 mi Calm Calm - N/A   Overcast
12:35 AM 28.4 °F - 28.4 °F 100% 29.98 in 10.0 mi Calm Calm - N/A   Overcast
12:55 AM 30.2 °F - 28.4 °F 93% 29.99 in 10.0 mi Calm Calm - N/A   Overcast
1:15 AM 30.2 °F - 28.4 °F 93% 29.99 in 10.0 mi Calm Calm - N/A   Overcast
1:35 AM 30.2 °F - 26.6 °F 86% 30.00 in 10.0 mi Calm Calm - N/A   Overcast
1:55 AM 32.0 °F 23.6 °F 26.6 °F 80% 30.01 in 10.0 mi WNW 10.4 mph - N/A   Overcast
2:15 AM 32.0 °F 23.6 °F 28.4 °F 87% 30.01 in 10.0 mi WNW 10.4 mph - N/A   Overcast
2:35 AM 32.0 °F 23.6 °F 26.6 °F 80% 30.01 in 10.0 mi WNW 10.4 mph - N/A   Overcast
2:55 AM 32.0 °F 24.2 °F 26.6 °F 80% 30.01 in 10.0 mi WNW 9.2 mph - N/A   Overcast
3:15 AM 30.2 °F 24.3 °F 26.6 °F 86% 30.01 in 10.0 mi NW 5.8 mph - N/A   Overcast
3:35 AM 30.2 °F 22.6 °F 26.6 °F 86% 30.01 in 10.0 mi NW 8.1 mph - N/A   Overcast
3:55 AM 32.0 °F 24.8 °F 24.8 °F 75% 30.01 in 10.0 mi NW 8.1 mph - N/A   Overcast
4:15 AM 30.2 °F 21.9 °F 24.8 °F 80% 30.01 in 10.0 mi NNW 9.2 mph - N/A   Mostly Cloudy
4:35 AM 30.2 °F 23.4 °F 24.8 °F 80% 30.01 in 10.0 mi NNW 6.9 mph - N/A   Mostly Cloudy
4:55 AM 30.2 °F 21.9 °F 24.8 °F 80% 30.01 in 10.0 mi NW 9.2 mph - N/A   Overcast
5:15 AM 30.2 °F 22.6 °F 26.6 °F 86% 30.01 in 10.0 mi NNW 8.1 mph - N/A   Overcast
5:35 AM 30.2 °F 23.4 °F 26.6 °F 86% 30.01 in 10.0 mi NW 6.9 mph - N/A   Overcast
5:55 AM 28.4 °F 22.2 °F 24.8 °F 86% 30.01 in 10.0 mi South 5.8 mph - N/A   Overcast
6:15 AM 28.4 °F 22.2 °F 24.8 °F 86% 30.02 in 10.0 mi South 5.8 mph - N/A   Overcast
6:35 AM 26.6 °F 20.0 °F 23.0 °F 86% 30.02 in 10.0 mi South 5.8 mph - N/A   Overcast
6:55 AM 26.6 °F 22.6 °F 23.0 °F 86% 30.02 in 10.0 mi SW 3.5 mph - N/A   Mostly Cloudy
7:15 AM 23.0 °F 18.4 °F 21.2 °F 93% 30.03 in 10.0 mi South 3.5 mph - N/A   Clear
7:35 AM 23.0 °F 17.0 °F 19.4 °F 86% 30.03 in 10.0 mi SW 4.6 mph - N/A   Clear
7:55 AM 21.2 °F 13.6 °F 17.6 °F 86% 30.03 in 10.0 mi South 5.8 mph - N/A   Clear
8:15 AM 23.0 °F 17.0 °F 19.4 °F 86% 30.05 in 10.0 mi South 4.6 mph - N/A   Clear
8:35 AM 23.0 °F 18.4 °F 19.4 °F 86% 30.05 in 10.0 mi SSW 3.5 mph - N/A   Clear
8:55 AM 26.6 °F 22.6 °F 21.2 °F 80% 30.06 in 10.0 mi SSW 3.5 mph - N/A   Clear
9:15 AM 28.4 °F 24.6 °F 21.2 °F 74% 30.06 in 10.0 mi SW 3.5 mph - N/A   Clear
9:35 AM 30.2 °F 23.4 °F 23.0 °F 75% 30.06 in 10.0 mi South 6.9 mph - N/A   Clear
9:55 AM 32.0 °F 24.2 °F 23.0 °F 69% 30.07 in 10.0 mi South 9.2 mph - N/A   Clear
10:15 AM 32.0 °F 24.2 °F 26.6 °F 80% 30.06 in 10.0 mi South 9.2 mph - N/A   Clear
10:35 AM 33.8 °F 27.0 °F 26.6 °F 75% 30.05 in 10.0 mi SSW 8.1 mph - N/A   Clear
10:55 AM 33.8 °F 25.3 °F 26.6 °F 75% 30.04 in 10.0 mi SSW 11.5 mph - N/A   Clear
11:15 AM 35.6 °F 27.1 °F 26.6 °F 70% 30.03 in 10.0 mi SSW 12.7 mph - N/A   Clear
11:35 AM 35.6 °F 28.0 °F 26.6 °F 70% 30.02 in 10.0 mi SSW 10.4 mph 18.4 mph N/A   Clear
11:55 AM 35.6 °F 27.1 °F 26.6 °F 70% 30.01 in 10.0 mi SSW 12.7 mph - N/A   Clear
12:15 PM 35.6 °F 27.1 °F 26.6 °F 70% 30.00 in 10.0 mi SSW 12.7 mph - N/A   Clear
12:35 PM 35.6 °F 27.5 °F 26.6 °F 70% 30.00 in 10.0 mi South 11.5 mph - N/A   Clear
12:55 PM 35.6 °F 26.6 °F 26.6 °F 70% 29.99 in 10.0 mi SSW 13.8 mph 18.4 mph N/A   Clear
1:15 PM 35.6 °F 25.9 °F 26.6 °F 70% 29.98 in 10.0 mi South 16.1 mph 20.7 mph N/A   Clear
1:35 PM 35.6 °F 26.2 °F 26.6 °F 70% 29.97 in 10.0 mi SSW 15.0 mph 20.7 mph N/A   Clear
1:55 PM 35.6 °F 25.9 °F 26.6 °F 70% 29.97 in 10.0 mi SSW 16.1 mph 20.7 mph N/A   Clear
2:15 PM 35.6 °F 27.1 °F 26.6 °F 70% 29.98 in 10.0 mi SSW 12.7 mph 16.1 mph N/A   Clear
2:35 PM 33.8 °F 25.8 °F 26.6 °F 75% 29.98 in 10.0 mi South 10.4 mph - N/A   Clear
2:55 PM 35.6 °F 26.6 °F 26.6 °F 70% 29.98 in 10.0 mi South 13.8 mph - N/A   Clear
3:15 PM 33.8 °F 26.4 °F 26.6 °F 75% 29.98 in 10.0 mi South 9.2 mph - N/A   Clear
3:35 PM 33.8 °F 26.4 °F 26.6 °F 75% 29.98 in 10.0 mi South 9.2 mph - N/A   Clear
3:55 PM 32.0 °F 24.8 °F 26.6 °F 80% 29.98 in 10.0 mi South 8.1 mph - N/A   Clear
4:15 PM 32.0 °F 25.6 °F 26.6 °F 80% 29.98 in 10.0 mi South 6.9 mph - N/A   Clear
4:35 PM 32.0 °F 24.8 °F 26.6 °F 80% 29.98 in 10.0 mi South 8.1 mph - N/A   Clear
4:55 PM 30.2 °F 21.9 °F 26.6 °F 86% 29.98 in 10.0 mi SSW 9.2 mph - N/A   Clear
5:15 PM 28.4 °F 22.2 °F 24.8 °F 86% 29.98 in 10.0 mi South 5.8 mph - N/A   Clear
5:35 PM 26.6 °F 18.2 °F 23.0 °F 86% 29.98 in 10.0 mi SSE 8.1 mph - N/A   Clear
5:55 PM 26.6 °F 20.0 °F 23.0 °F 86% 29.98 in 10.0 mi South 5.8 mph - N/A   Clear
6:15 PM 28.4 °F 19.7 °F 23.0 °F 80% 29.98 in 10.0 mi South 9.2 mph - N/A   Clear
6:35 PM 26.6 °F 16.8 °F 23.0 °F 86% 29.98 in 10.0 mi SSW 10.4 mph - N/A   Clear
6:55 PM 26.6 °F 17.5 °F 23.0 °F 86% 29.98 in 10.0 mi SSW 9.2 mph - N/A   Clear
7:15 PM 26.6 °F 16.2 °F 23.0 °F 86% 29.98 in 10.0 mi SSW 11.5 mph - N/A   Clear
7:35 PM 26.6 °F 15.7 °F 23.0 °F 86% 29.98 in 10.0 mi SSW 12.7 mph - N/A   Clear
7:55 PM 26.6 °F 17.5 °F 23.0 °F 86% 29.98 in 10.0 mi SSW 9.2 mph - N/A   Clear
8:15 PM 26.6 °F 21.2 °F 21.2 °F 80% 29.98 in 10.0 mi NE 4.6 mph - N/A   Clear
8:35 PM 26.6 °F - 23.0 °F 86% 29.98 in 10.0 mi Calm Calm - N/A   Clear
8:55 PM 21.2 °F - 19.4 °F 93% 29.98 in 10.0 mi Calm Calm - N/A   Clear
9:15 PM 21.2 °F 14.9 °F 19.4 °F 93% 29.97 in 10.0 mi SSW 4.6 mph - N/A   Clear
9:35 PM 21.2 °F 14.9 °F 21.2 °F 100% 29.96 in 10.0 mi SW 4.6 mph - N/A   Clear
9:55 PM 21.2 °F - 19.4 °F 93% 29.97 in 10.0 mi Calm Calm - N/A   Clear
10:15 PM 21.2 °F 12.6 °F 19.4 °F 93% 29.96 in 10.0 mi SSW 6.9 mph - N/A   Clear
10:35 PM 21.2 °F - 17.6 °F 86% 29.96 in 10.0 mi Calm Calm - N/A   Clear
10:55 PM 19.4 °F 11.5 °F 19.4 °F 100% 29.95 in 10.0 mi SW 5.8 mph - N/A   Clear
11:15 PM 23.0 °F 17.0 °F 21.2 °F 93% 29.95 in 10.0 mi WSW 4.6 mph - N/A   Clear
11:35 PM 19.4 °F 12.8 °F 17.6 °F 93% 29.95 in 10.0 mi West 4.6 mph - N/A   Clear
11:55 PM 17.6 °F - 17.6 °F 100% 29.94 in 10.0 mi Calm Calm - N/A   Clear